Date String (YYYY-MM-DD hh:mm:ss) UTC,Instrument flags,Ambient pressure (hPa),Sample flow (lpm),Bypass flow (lpm),Sample temperature (°C),Ambient temperature (°C),ASC tube jacket temperature (°C),LED temperature (°C),Box temperature (°C),Sample RH (%),Span deviation,Mass concentration (μg/m³),Mass concentration (μg/m³),Mass concentration (μg/m³)
DateTimeUTC,F1_M11,P_M11,Q1_M11,Q2_M11,T1_M11,T2_M11,T3_M11,T4_M11,T5_M11,U1_M11,ZSPAN_M11,X0_M11,X2_M11,X1_M11
2022-07-16 20:00:00,,0830.1,5.00,0.00,29.2,27.5,00.0,37.9,31.1,28.2,0000.0,0008.17,0004.41,0003.96
2022-07-16 20:01:00,,0830.1,4.99,0.00,29.3,27.7,00.0,37.9,31.1,28.6,0000.0,0008.38,0004.42,0003.97
2022-07-16 20:02:00,,0830.0,5.00,0.00,29.3,27.9,00.0,38.0,31.2,28.8,0000.0,0008.40,0004.43,0003.97
2022-07-16 20:03:00,,0830.0,5.01,0.00,29.3,28.1,00.0,38.0,31.3,28.3,0000.0,0008.38,0004.44,0003.95
2022-07-16 20:04:00,,0830.1,5.00,0.00,29.4,28.1,00.0,38.0,31.4,28.8,0000.0,0008.93,0004.42,0003.90
2022-07-16 20:05:00,,0830.1,5.00,0.00,29.4,27.5,00.0,37.9,31.3,29.1,0000.0,0009.02,0004.37,0003.84
2022-07-16 20:06:00,,0830.1,5.00,0.00,29.3,27.1,00.0,37.9,31.2,29.9,0000.0,0009.27,0004.34,0003.79
2022-07-16 20:07:00,,0830.2,5.00,0.00,29.3,27.0,00.0,37.9,31.1,30.5,0000.0,0009.79,0004.29,0003.74
2022-07-16 20:08:00,,0830.2,5.00,0.00,29.3,27.2,00.0,37.9,31.0,30.9,0000.0,0009.68,0004.25,0003.71
2022-07-16 20:09:00,,0830.2,5.01,0.00,29.2,27.4,00.0,37.9,31.1,31.5,0000.0,0009.80,0004.23,0003.69
2022-07-16 20:10:00,,0830.2,5.00,0.00,29.3,27.6,00.0,37.9,31.1,31.6,0000.0,0009.81,0004.21,0003.66
2022-07-16 20:11:00,,0830.2,5.00,0.00,29.3,27.8,00.0,37.9,31.2,31.6,0000.0,0009.71,0004.21,0003.65
2022-07-16 20:12:00,,0830.2,4.99,0.00,29.3,28.0,00.0,38.0,31.3,31.7,0000.0,0009.33,0004.23,0003.65
2022-07-16 20:13:00,,0830.2,5.02,0.00,29.4,28.2,00.0,38.0,31.3,31.8,0000.0,0009.56,0004.23,0003.64
2022-07-16 20:14:00,,0830.2,4.99,0.00,29.4,27.9,00.0,38.0,31.4,32.0,0000.0,0009.46,0004.20,0003.64
2022-07-16 20:15:00,,0830.4,5.01,0.00,29.4,27.2,00.0,37.9,31.3,31.2,0000.0,0009.15,0004.18,0003.67
2022-07-16 20:16:00,,0830.4,5.00,0.00,29.3,26.9,00.0,37.9,31.2,31.7,0000.0,0009.09,0004.21,0003.72
2022-07-16 20:17:00,,0830.4,5.00,0.00,29.3,27.0,00.0,37.9,31.0,31.3,0000.0,0008.79,0004.19,0003.73
2022-07-16 20:18:00,,0830.4,5.00,0.00,29.2,27.1,00.0,37.9,31.0,31.7,0000.0,0008.27,0004.19,0003.72
2022-07-16 20:19:00,,0830.4,5.01,0.00,29.2,27.3,00.0,37.9,31.1,32.4,0000.0,0008.32,0004.20,0003.70
2022-07-16 20:20:00,,0830.4,5.01,0.00,29.2,27.6,00.0,37.9,31.1,33.4,0000.0,0008.15,0004.19,0003.71
2022-07-16 20:21:00,,0830.4,4.98,0.00,29.3,27.8,00.0,37.9,31.2,33.8,0000.0,0008.70,0004.21,0003.73
2022-07-16 20:22:00,,0830.4,5.01,0.00,29.3,28.0,00.0,38.0,31.2,34.2,0000.0,0008.92,0004.24,0003.74
2022-07-16 20:23:00,,0830.4,5.00,0.00,29.3,28.1,00.0,38.0,31.3,35.1,0000.0,0009.58,0004.32,0003.75
2022-07-16 20:24:00,,0830.4,4.99,0.00,29.5,27.9,00.0,38.0,31.4,34.3,0000.0,0009.46,0004.36,0003.76
2022-07-16 20:25:00,,0830.2,4.99,0.00,29.7,27.3,00.0,37.9,31.4,33.9,0000.0,0009.71,0004.41,0003.79
2022-07-16 20:26:00,,0830.3,5.01,0.00,29.8,26.9,00.0,37.9,31.3,33.9,0000.0,0010.10,0004.53,0003.84
2022-07-16 20:27:00,,0830.4,5.00,0.00,29.8,26.9,00.0,37.9,31.1,34.4,0000.0,0010.48,0004.68,0003.91
2022-07-16 20:28:00,,0830.4,5.00,0.00,29.7,27.0,00.0,38.0,31.1,35.0,0000.0,0011.07,0004.89,0004.00
2022-07-16 20:29:00,,0830.4,5.00,0.00,29.8,27.2,00.0,38.0,31.2,36.0,0000.0,0011.69,0005.13,0004.10
2022-07-16 20:30:00,,0830.4,5.01,0.00,30.1,27.5,00.0,38.1,31.4,35.6,0000.0,0012.57,0005.33,0004.18
2022-07-16 20:31:00,,0830.5,5.00,0.00,30.5,27.7,00.0,38.1,31.6,34.6,0000.0,0012.95,0005.42,0004.22
2022-07-16 20:32:00,,0830.6,5.00,0.00,30.7,27.9,00.0,38.2,31.7,34.3,0000.0,0012.56,0005.46,0004.23
2022-07-16 20:33:00,,0830.5,4.99,0.00,30.9,28.0,00.0,38.3,31.7,34.6,0000.0,0013.29,0005.58,0004.24
2022-07-16 20:34:00,,0830.6,5.00,0.00,30.9,28.2,00.0,38.4,31.7,32.9,0000.0,0012.86,0005.61,0004.26
2022-07-16 20:35:00,,0830.6,5.00,0.00,31.0,28.1,00.0,38.4,31.7,32.7,0000.0,0012.65,0005.61,0004.29
2022-07-16 20:36:00,,0830.7,4.99,0.00,31.0,27.4,00.0,38.5,31.6,33.5,0000.0,0012.60,0005.67,0004.29
2022-07-16 20:37:00,,0830.8,4.99,0.00,30.9,27.0,00.0,38.5,31.5,33.7,0000.0,0012.00,0005.63,0004.26
2022-07-16 20:38:00,,0830.8,5.01,0.00,30.9,26.9,00.0,38.6,31.4,34.1,0000.0,0011.72,0005.57,0004.22
2022-07-16 20:39:00,,0830.8,5.01,0.00,30.7,27.0,00.0,38.6,31.3,34.1,0000.0,0011.41,0005.49,0004.17
2022-07-16 20:40:00,,0830.7,5.00,0.00,30.6,27.2,00.0,38.7,31.3,34.4,0000.0,0010.99,0005.35,0004.13
2022-07-16 20:41:00,,0830.8,5.00,0.00,30.6,27.4,00.0,38.7,31.4,34.6,0000.0,0010.30,0005.23,0004.08
2022-07-16 20:42:00,,0830.9,4.99,0.00,30.6,27.6,00.0,38.7,31.4,34.9,0000.0,0009.92,0005.18,0004.06
2022-07-16 20:43:00,,0830.8,5.00,0.00,30.6,27.8,00.0,38.8,31.5,35.5,0000.0,0010.02,0005.17,0004.05
2022-07-16 20:44:00,,0830.8,5.02,0.00,30.8,28.0,00.0,38.8,31.7,34.7,0000.0,0009.91,0005.12,0004.03
2022-07-16 20:45:00,,0830.9,5.00,0.00,31.0,28.1,00.0,38.8,31.9,33.9,0000.0,0009.75,0005.02,0004.01
2022-07-16 20:46:00,,0830.7,4.98,0.00,31.1,28.3,00.0,38.9,31.9,33.2,0000.0,0009.70,0004.99,0004.00
2022-07-16 20:47:00,,0830.7,5.00,0.00,31.2,28.3,00.0,38.9,31.9,32.6,0000.0,0009.53,0004.94,0003.99
2022-07-16 20:48:00,,0830.8,5.01,0.00,31.2,27.7,00.0,38.9,31.9,32.5,0000.0,0009.84,0004.93,0003.97
2022-07-16 20:49:00,,0830.6,4.99,0.00,31.2,27.2,00.0,38.9,31.7,32.5,0000.0,0010.10,0004.87,0003.96
2022-07-16 20:50:00,,0830.6,5.01,0.00,31.1,27.0,00.0,38.9,31.6,32.0,0000.0,0009.93,0004.79,0003.95
2022-07-16 20:51:00,,0830.6,4.99,0.00,31.0,27.1,00.0,38.9,31.5,32.2,0000.0,0009.80,0004.76,0003.95
2022-07-16 20:52:00,,0830.6,5.00,0.00,30.9,27.2,00.0,39.0,31.5,33.0,0000.0,0009.68,0004.72,0003.95
2022-07-16 20:53:00,,0830.6,5.00,0.00,30.8,27.4,00.0,39.0,31.5,33.1,0000.0,0010.09,0004.72,0003.96
2022-07-16 20:54:00,,0830.6,5.00,0.00,30.8,27.6,00.0,39.0,31.6,32.4,0000.0,0010.06,0004.69,0003.97
2022-07-16 20:55:00,,0830.6,5.00,0.00,30.7,27.8,00.0,39.0,31.6,32.6,0000.0,0009.35,0004.65,0003.97
2022-07-16 20:56:00,,0830.6,5.00,0.00,30.7,28.0,00.0,39.0,31.7,32.7,0000.0,0009.12,0004.60,0003.97
2022-07-16 20:57:00,,0830.6,4.99,0.00,30.7,28.2,00.0,39.0,31.7,33.0,0000.0,0009.12,0004.60,0003.96
2022-07-16 20:58:00,,0830.7,5.00,0.00,30.7,28.3,00.0,39.0,31.8,32.9,0000.0,0009.29,0004.59,0003.96
2022-07-16 20:59:00,,0830.8,5.00,0.00,30.7,28.2,00.0,39.0,31.8,32.5,0000.0,0009.15,0004.56,0003.96
